Location: Home
(51.5204°N, 2.5456°W)
Time: 03:09:50
(UTC+01:00)

Envisat - Visible Passes

Search period start: 24 April 2019 00:00
Search period end: 04 May 2019 00:00
Orbit: 764 x 766 km, 98.2° (Epoch: 23 April)

Date Brightness Start Highest point End Pass type
(mag) Time Alt. Az. Time Alt. Az. Time Alt. Az.
24 Apr 5.7 20:58:08 10° SW 21:01:39 19° W 21:05:11 10° NW visible
26 Apr 6.2 21:26:02 10° W 21:27:34 11° W 21:29:07 10° WNW visible
29 Apr 5.9 21:13:33 10° WSW 21:16:10 14° W 21:18:48 10° NW visible
